When you browse on this site, cookies collect data to enhance your experience and personalize the content and advertising you see.
Visit our Privacy Policy to learn more. By continuing to use the site, you agree to this use of cookies and data.

Previsão horária em Pontypool

Hoje, 5 Agosto, Quarta-feira

Tempo Temperatura Precipitação Vento Pressão Humidade
00:00 +16°C° 0 mm 7 m/s 743 mmHg 91%
01:00 +16°C° 0 mm 7 m/s 743 mmHg 91%
02:00 +16°C° 0 mm 6 m/s 743 mmHg 91%
03:00 +16°C° 0 mm 6 m/s 743 mmHg 91%
04:00 +16°C° 0 mm 6 m/s 743 mmHg 91%
05:00 +16°C° 0 mm 5 m/s 743 mmHg 92%
06:00 +15°C° 0 mm 5 m/s 742 mmHg 92%
07:00 +16°C° 0 mm 6 m/s 743 mmHg 88%
08:00 +17°C° 0 mm 6 m/s 743 mmHg 83%
09:00 +18°C° 0 mm 7 m/s 743 mmHg 79%
10:00 +20°C° 0.1 mm 7 m/s 743 mmHg 78%
11:00 +20°C° 0.1 mm 7 m/s 743 mmHg 76%
12:00 +21°C° 0.1 mm 8 m/s 743 mmHg 75%
13:00 +21°C° 0.1 mm 8 m/s 743 mmHg 74%
14:00 +21°C° 0.1 mm 8 m/s 743 mmHg 74%
15:00 +22°C° 0.1 mm 8 m/s 743 mmHg 73%
16:00 +20°C° 0.4 mm 7 m/s 743 mmHg 80%
17:00 +19°C° 0.4 mm 6 m/s 743 mmHg 86%
18:00 +17°C° 0.4 mm 5 m/s 743 mmHg 93%
19:00 +17°C° 0.1 mm 5 m/s 743 mmHg 94%
20:00 +18°C° 0.1 mm 4 m/s 744 mmHg 95%
21:00 +18°C° 0.1 mm 4 m/s 744 mmHg 96%
22:00 +18°C° 0.1 mm 4 m/s 744 mmHg 96%
23:00 +17°C° 0.1 mm 4 m/s 744 mmHg 96%

Amanhã, 6 Agosto, Quinta-feira

Tempo Temperatura Precipitação Vento Pressão Humidade
00:00 +17°C° 0.1 mm 3 m/s 744 mmHg 97%
01:00 +17°C° 0 mm 3 m/s 745 mmHg 97%
02:00 +17°C° 0 mm 3 m/s 745 mmHg 97%
03:00 +17°C° 0 mm 2 m/s 745 mmHg 98%
04:00 +17°C° 0 mm 2 m/s 745 mmHg 97%
05:00 +17°C° 0 mm 2 m/s 745 mmHg 97%
06:00 +17°C° 0 mm 2 m/s 745 mmHg 97%
07:00 +18°C° 0 mm 2 m/s 746 mmHg 94%
08:00 +19°C° 0 mm 3 m/s 746 mmHg 91%
09:00 +20°C° 0 mm 3 m/s 747 mmHg 88%
10:00 +20°C° 0.1 mm 3 m/s 747 mmHg 87%
11:00 +20°C° 0.1 mm 4 m/s 747 mmHg 87%
12:00 +21°C° 0.1 mm 4 m/s 747 mmHg 87%
13:00 +21°C° 0.2 mm 4 m/s 747 mmHg 85%
14:00 +22°C° 0.2 mm 4 m/s 747 mmHg 83%
15:00 +22°C° 0.2 mm 4 m/s 747 mmHg 81%
16:00 +22°C° 0.1 mm 4 m/s 747 mmHg 81%
17:00 +22°C° 0.1 mm 4 m/s 747 mmHg 82%
18:00 +22°C° 0.1 mm 3 m/s 747 mmHg 82%
19:00 +20°C° 0 mm 3 m/s 747 mmHg 86%
20:00 +19°C° 0 mm 2 m/s 748 mmHg 89%
21:00 +18°C° 0 mm 1 m/s 748 mmHg 93%
22:00 +18°C° 0 mm 1 m/s 748 mmHg 93%
23:00 +16°C° 0 mm 1 m/s 748 mmHg 94%

Depois de amanhã, 7 Agosto, Sexta-feira

Tempo Temperatura Precipitação Vento Pressão Humidade
00:00 +16°C° 0 mm 1 m/s 748 mmHg 95%
01:00 +16°C° 0 mm 1 m/s 748 mmHg 95%
02:00 +16°C° 0 mm 1 m/s 748 mmHg 95%
03:00 +15°C° 0 mm 1 m/s 748 mmHg 96%
04:00 +16°C° 0 mm 1 m/s 748 mmHg 96%
05:00 +16°C° 0 mm 1 m/s 748 mmHg 96%
06:00 +18°C° 0 mm 1 m/s 748 mmHg 96%
07:00 +20°C° 0 mm 1 m/s 748 mmHg 90%
08:00 +22°C° 0 mm 1 m/s 748 mmHg 84%
09:00 +23°C° 0 mm 1 m/s 748 mmHg 78%
10:00 +25°C° 0 mm 2 m/s 748 mmHg 71%
11:00 +26°C° 0 mm 2 m/s 748 mmHg 65%
12:00 +27°C° 0 mm 2 m/s 748 mmHg 58%
13:00 +28°C° 0 mm 2 m/s 748 mmHg 56%
14:00 +29°C° 0 mm 2 m/s 748 mmHg 54%
15:00 +29°C° 0 mm 2 m/s 747 mmHg 52%
16:00 +29°C° 0 mm 2 m/s 747 mmHg 57%
17:00 +28°C° 0 mm 2 m/s 747 mmHg 62%
18:00 +27°C° 0 mm 2 m/s 747 mmHg 66%
19:00 +25°C° 0 mm 2 m/s 747 mmHg 71%
20:00 +23°C° 0 mm 2 m/s 748 mmHg 76%
21:00 +20°C° 0 mm 2 m/s 748 mmHg 81%
22:00 +20°C° 0 mm 2 m/s 748 mmHg 83%
23:00 +19°C° 0 mm 2 m/s 748 mmHg 85%

8 Agosto, Sábado

Tempo Temperatura Precipitação Vento Pressão Humidade
00:00 +19°C° 0 mm 2 m/s 748 mmHg 87%
01:00 +18°C° 0 mm 2 m/s 748 mmHg 89%
02:00 +18°C° 0 mm 2 m/s 748 mmHg 91%
03:00 +17°C° 0 mm 2 m/s 748 mmHg 93%
04:00 +17°C° 0 mm 2 m/s 749 mmHg 92%
05:00 +16°C° 0 mm 3 m/s 749 mmHg 92%
06:00 +16°C° 0 mm 3 m/s 750 mmHg 91%
07:00 +17°C° 0 mm 3 m/s 750 mmHg 82%
08:00 +18°C° 0 mm 4 m/s 750 mmHg 74%
09:00 +19°C° 0 mm 4 m/s 751 mmHg 66%
10:00 +20°C° 0 mm 4 m/s 751 mmHg 64%
11:00 +21°C° 0 mm 4 m/s 751 mmHg 62%
12:00 +22°C° 0 mm 5 m/s 752 mmHg 60%
13:00 +21°C° 0 mm 5 m/s 752 mmHg 61%
14:00 +21°C° 0 mm 5 m/s 752 mmHg 62%
15:00 +21°C° 0 mm 5 m/s 752 mmHg 63%
16:00 +20°C° 0 mm 5 m/s 752 mmHg 65%
17:00 +19°C° 0 mm 6 m/s 752 mmHg 67%
18:00 +19°C° 0 mm 6 m/s 752 mmHg 68%
19:00 +16°C° 0 mm 5 m/s 752 mmHg 71%
20:00 +14°C° 0 mm 5 m/s 753 mmHg 74%
21:00 +12°C° 0 mm 4 m/s 753 mmHg 77%
22:00 +12°C° 0 mm 4 m/s 753 mmHg 79%
23:00 +11°C° 0 mm 4 m/s 753 mmHg 81%

9 Agosto, Domingo

Tempo Temperatura Precipitação Vento Pressão Humidade
00:00 +11°C° 0 mm 4 m/s 753 mmHg 83%
01:00 +11°C° 0 mm 4 m/s 753 mmHg 85%
02:00 +11°C° 0 mm 4 m/s 753 mmHg 88%
03:00 +10°C° 0 mm 4 m/s 753 mmHg 90%
04:00 +11°C° 0 mm 4 m/s 753 mmHg 90%
05:00 +11°C° 0 mm 4 m/s 753 mmHg 89%
06:00 +12°C° 0 mm 4 m/s 753 mmHg 89%
07:00 +13°C° 0 mm 5 m/s 753 mmHg 84%
08:00 +15°C° 0 mm 5 m/s 753 mmHg 79%
09:00 +16°C° 0 mm 6 m/s 753 mmHg 73%
10:00 +19°C° 0 mm 6 m/s 753 mmHg 69%
11:00 +20°C° 0 mm 6 m/s 752 mmHg 64%
12:00 +21°C° 0 mm 6 m/s 752 mmHg 60%
13:00 +21°C° 0 mm 6 m/s 752 mmHg 59%
14:00 +21°C° 0 mm 6 m/s 752 mmHg 58%
15:00 +22°C° 0 mm 6 m/s 751 mmHg 56%
16:00 +21°C° 0 mm 6 m/s 751 mmHg 59%
17:00 +20°C° 0 mm 6 m/s 751 mmHg 62%
18:00 +19°C° 0 mm 5 m/s 751 mmHg 65%
19:00 +17°C° 0 mm 5 m/s 751 mmHg 67%
20:00 +15°C° 0 mm 6 m/s 751 mmHg 68%
21:00 +14°C° 0 mm 6 m/s 751 mmHg 70%
22:00 +14°C° 0 mm 6 m/s 751 mmHg 72%
23:00 +13°C° 0 mm 6 m/s 751 mmHg 74%

10 Agosto, Segunda-feira

Tempo Temperatura Precipitação Vento Pressão Humidade
00:00 +13°C° 0 mm 6 m/s 751 mmHg 75%
01:00 +12°C° 0 mm 5 m/s 750 mmHg 77%
02:00 +12°C° 0 mm 5 m/s 750 mmHg 78%
03:00 +12°C° 0 mm 5 m/s 750 mmHg 80%
04:00 +12°C° 0 mm 5 m/s 750 mmHg 81%
05:00 +12°C° 0 mm 5 m/s 750 mmHg 82%
06:00 +11°C° 0 mm 6 m/s 750 mmHg 84%
07:00 +11°C° 0 mm 6 m/s 750 mmHg 81%
08:00 +13°C° 0 mm 6 m/s 750 mmHg 79%
09:00 +14°C° 0 mm 6 m/s 750 mmHg 76%
10:00 +16°C° 0 mm 6 m/s 749 mmHg 72%
11:00 +17°C° 0 mm 6 m/s 749 mmHg 67%
12:00 +19°C° 0 mm 6 m/s 749 mmHg 63%
13:00 +20°C° 0 mm 6 m/s 749 mmHg 62%
14:00 +20°C° 0 mm 6 m/s 749 mmHg 61%
15:00 +21°C° 0 mm 6 m/s 749 mmHg 61%
16:00 +21°C° 0 mm 6 m/s 748 mmHg 63%
17:00 +20°C° 0 mm 5 m/s 748 mmHg 65%
18:00 +20°C° 0 mm 5 m/s 748 mmHg 66%
19:00 +17°C° 0 mm 5 m/s 748 mmHg 69%
20:00 +16°C° 0 mm 5 m/s 748 mmHg 72%
21:00 +14°C° 0 mm 5 m/s 748 mmHg 75%
22:00 +14°C° 0 mm 5 m/s 748 mmHg 78%
23:00 +13°C° 0 mm 4 m/s 748 mmHg 82%
Mostrar mais